www.pogodaiklimat.ru

Погода и климат >> Архив погоды >> Малайзия >> Ipoh


ПОГОДА в Ipoh

  • Прогноз погоды в Ipoh
  • Монитор погоды в Ipoh
  • Климат города

АРХИВ ПОГОДЫ в Ipoh

Время (UTC), дата Ветер
(напр.,м/с)
 
Видим.   Явления Облачность Т
(С)
Тd
(С)
f
(%)
Тe
(С)
Тes
(С)
Комфортность P
(гПа)
Po
(гПа)
Тmin
(С)
Tmax
(С)
R
(мм)
R24
(мм)
S
(см)
18 11.12 Ю 1 8000 м дымка 9/5 150 м
[Sc Ac trans Ci sp]
+24.9 +24.2 96 +34 +34 очень
душно
1011.0 1006.3 0.4
00 12.12 штиль 0 11 км дымка 9/5 150 м
[Cu Sc Ac trans Ci sp]
+24.8 +24.7 99 +35 +35 очень
душно
1011.0 1006.3 +23.4 0.6
06 12.12 В 2 6000 м гроза, ливневой дождь 9/4 500 м
[Cb cap Ac trans Cs]
+26.2 +24.9 93 +37 +43 очень
душно
1010.2 1005.5 2
12 12.12 СВ 2 5000 м слабый дождь 10/4 120 м
[Sc Ac trans Cs]
+24.6 +24.1 97 +34 +34 очень
душно
1010.2 1005.5 +29.5 7
18 12.12 штиль 0 8000 м слабый дождь 9/4 300 м
[Sc Ac trans Cs]
+24.4 +24.1 98 +34 +34 очень
душно
1010.9 1006.2 0.2
00 13.12 С 2 12 км дымка 9/4 300 м
[Cb cap Ac und Cs]
+24.6 +23.9 96 +34 +34 очень
душно
1011.3 1006.6 +24.1 10
06 13.12 СВ 2 12 км мгла 9/3 600 м
[Cu Sc Ac trans Cs]
+29.9 +23.3 68 +40 +47 очень
душно
1010.5 1005.8
12 13.12 СВ 1 9000 м зарница 9/4 500 м
[Cb cap Ac trans Cs]
+27.5 +24.7 85 +39 +39 очень
душно
1010.5 1005.8 +30.8
18 13.12 СВ 2 9000 м мгла 9/3 900 м
[Sc Ac trans Cs]
+25.6 +23.6 89 +35 +35 очень
душно
1011.4 1006.7
00 14.12 В 1 10 км дымка 9/3 150 м
[Cb cap Ac trans Ci sp]
+24.2 +23.4 95 +32 +33 очень
душно
1011.9 1007.2 +24.0 0.2
06 14.12 СВ 3 9000 м осадки на расстоянии {ливн. осадки} 9/6 270 м
[Cb cap Ac trans Ci sp]
+26.5 +23.9 86 +37 +40 очень
душно
1011.6 1006.9 0.2
12 14.12 Ю 2 10 км мгла 9/3 840 м
[Sc Ac trans Ci sp]
+25.5 +23.5 89 +35 +35 очень
душно
1012.2 1007.5 +29.6 0.2
18 14.12 штиль 0 7000 м дымка {дождь} 9/3 90 м
[Sc Ac trans Ci sp]
+24.2 +23.7 97 +33 +33 очень
душно
1012.5 1007.8 0.4
00 15.12 СВ 2 9000 м дымка 9/3 180 м
[Cu Sc Ac trans Cs]
+22.8 +22.0 95 +31 +31 очень
душно
1011.7 1006.9 +22.5 0.8
06 15.12 Ю 2 12 км мгла 9/6 500 м
[Cb cap Ac trans Ci sp]
+31.5 +23.9 64 +43 +48 опасность
перегрева
1010.1 1005.4
12 15.12 З 1 10 км мгла 9/4 180 м
[Sc Ac trans Cs]
+24.7 +23.9 95 +34 +34 очень
душно
1011.1 1006.4 +32.0 34
18 15.12 В 2 10 км мгла 9/3 840 м
[Sc Ac trans Ci sp]
+24.5 +23.3 93 +33 +33 очень
душно
1012.2 1007.5
00 16.12 СВ 2 12 км мгла 9/5 600 м
[Cu Sc Ac trans Ci sp]
+24.9 +23.4 91 +33 +34 очень
душно
1011.9 1007.2 +22.8 34
06 16.12 Ю 2 13 км мгла 9/4 600 м
[Cu med, cong Ac trans Ci sp]
+31.3 +23.8 64 +42 +49 опасность
перегрева
1010.3 1005.6
12 16.12 штиль 0 6000 м гроза, ливневой дождь 9/5 180 м
[Cb cap Ac trans Cs]
+24.1 +23.6 97 +33 +33 очень
душно
1012.2 1007.5 +31.8 11
18 16.12 С 1 6000 м дымка 9/3 150 м
[Sc Ac trans Cs]
+24.0 +23.6 98 +33 +33 очень
душно
1011.4 1006.7 1
00 17.12 С 2 9000 м дымка 9/3 120 м
[Cu Sc Ac trans Cs]
+23.8 +23.3 97 +32 +32 очень
душно
1012.1 1007.4 +23.5 13
06 17.12 С 1 11 км мгла 10/4 600 м
[Cu hum Ac trans Cs]
+28.5 +24.2 78 +40 +46 очень
душно
1011.2 1006.5
12 17.12 СВ 2 10 км мгла 9/4 840 м
[Sc Ac trans Ci sp]
+26.3 +23.4 84 +36 +36 очень
душно
1011.2 1006.5 +29.5
18 17.12 СВ 3 10 км мгла 9/3 900 м
[Sc Ac trans Ci sp]
+24.2 +22.0 88 +31 +31 очень
душно
1011.7 1007.0
00 18.12 СВ 3 12 км мгла 9/4 500 м
[Cb cap Ac trans Ci sp]
+23.8 +21.9 89 +31 +31 очень
душно
1011.3 1006.6 +23.1
06 18.12 Ю 1 12 км мгла 9/3 600 м
[Cu hum Ac trans Ci sp]
+32.1 +23.7 61 +43 +51 опасность
перегрева
1010.2 1005.5
12 18.12 ЮВ 2 10 км в посл. час гроза {дождь} 9/4 150 м
[Sc Ac trans Cs]
+25.6 +23.8 90 +35 +35 очень
душно
1010.9 1006.2 +32.5 0.6

 

Местоположение метеостанции Ipoh (Малайзия): широта 4.57 долгота 101.10 высота над уровнем моря 39 м.

В архиве по умолчанию представлена погода в Ipoh за последнюю неделю. Архивные данные за месяц целиком и за предыдущие месяцы, начиная с января 2011 года, Вы можете получить, выбрав интересующий диапазон дат из раскрывающегося списка и нажав кнопку "Ввод!".


*Определитесь, кто Вы:
робот инопланетянин человек

Внимание! Время в таблицах - всемирное. Для получения местного времени необходимо прибавить поправку, которая в Ipoh равна 7 ч.

Смотрите также архив погоды в соседних городах и на ближайших метеорологических станциях:

Погода в Cameron Highlands (Малайзия) (32 км)
Погода в Sitiawan (Малайзия) (59 км)
Погода в Penang (Малайзия) (124 км)
Погода в Butterworth Air Base (Малайзия) (128 км)
Погода в Kuala Lumpur (Малайзия) (169 км)
Погода в Alor Star (Малайзия) (197 км)
Погода в Kuala Lumpur Int Airport (Малайзия) (216 км)
Погода в Yala Agromet (Таиланд) (218 км)
Погода в Narathiwat (Таиланд) (220 км)
Погода в Kota Bharu (Малайзия) (221 км)

Пояснения к столбцам:

Ветер - указаны скорость ветра в м/с - средняя за 10 мин, порывы в срок и между сроками (в фигурных скобках) и направление, откуда дует ветер: С - северный, СВ - северо-восточный, В - восточный, ЮВ - юго-восточный, Ю - южный, ЮЗ - юго-западный, З - западный, СЗ - северо-западный.
Видимость - горизонтальная дальность видимости в метрах или километрах. При видимости от 1 до 10 км при отсутствии осадков обычно наблюдается дымка, при ухудшении видимости до 1 км и менее - туман. В сухую погоду видимость может ухудшаться дымом, пылью или мглою.
Явления - указаны атмосферные явления, наблюдавшиеся в срок или в последний час перед сроком; фигурными скобками обозначены явления, наблюдавшиеся между сроками (за 1-3 часа до срока); квадратными скобками обозначены град или гололедные отложения с указанием их диаметра в мм.
Облачность - указаны через наклонную черту общая и нижняя облачность в баллах и высота нижней границы облаков в метрах; квадратными скобками обозначены формы облаков: Ci - перистые, Cs - перисто-слоистые, Cc - перисто-кучевые, Ac - высококучевые, As - высокослоистые, Sc - слоисто-кучевые, Ns - слоисто-дождевые, Cu - кучевые, Cb - кучево-дождевые. Подробнее классификацию облаков см. в Атласе облаков (PDF).
T - Температура воздуха - температура, измеренная на высоте 2 м над землей.
Td - Температура точки росы - температура, при понижении до которой содержащийся в воздухе водяной пар достигнет насыщения.
f - Относительная влажность воздуха - влажноcть воздуха, измеренная на высоте 2 м над землей.
Te - Эффективная температура - температура, которую ощущает одетый по сезону человек в тени. Характеристика душности погоды. При расчете учитывается влияние влажности воздуха и скорости ветра на теплоощущения человека.
Tes - Эффективная температура на солнце - температура, которую ощущает человек, с поправкой на солнечный нагрев. Характеристика знойности погоды. Зависит от высоты солнца над горизонтом, облачности и скорости ветра. Ночью, в пасмурную погоду, а также при ветре 12 м/с и более поправка равна нулю.
P - Атмосферное давление - приведенное к уровню моря атмосферное давление.
Po - Атмосферное давление - измеренное на уровне метеостанции атмосферное давление.
Tmin - Минимальная температура - минимум температуры воздуха на высоте 2 м над землей.
Tmax - Максимальная температура - максимум температуры воздуха на высоте 2 м над землей.
R - Количество осадков - Количество выпавших осадков за период времени, мм. При наведении курсора мыши на число - период времени, за который выпало указанное количество осадков.
R24 - Количество осадков - Количество выпавших осадков за 24 часа, мм.
S - Снежный покров - Высота снежного покрова, см. При наведении курсора мыши на число - состояние снежного покрова и степень покрытия местности в баллах.